[[{"header":{"parameterUnit":"m.s-1","parameterCategory":1,"la1":30.2991,"la2":30.254,"lo1":-89.0895,"lo2":-89.0444,"dy":0.0017,"dx":0.0017,"nx":28,"ny":28,"refTime":"2025-05-17T03:00:00:Z","depth":0,"parameterNumber":2,"parameterNumberName":"U-component_of_WINDS"},"data":[0,0,0,0,0,0,0,0,0,0,0,0,0,0,0,0,0,0,0,0,0,0,0,0,0,0,0,0,0,0,0,0,0,0,0,0,0,0,0,0,0,0,0,0,0,0,0,0,0,0,0,0,0,0,0,0,0,0,1.2392,1.2392,0,1.2371,1.2371,1.237,1.2325,1.2324,1.2323,1.2322,1.2301,1.2302,1.2302,0,0,0,0,0,0,0,0,0,0,0,0,0,1.2393,1.2393,1.2392,1.2392,1.2391,1.2371,1.237,1.237,1.2325,1.2324,1.2323,1.2322,1.2301,1.2302,1.2302,0,0,0,0,0,0,0,0,0,0,0,0,0,1.2384,1.2393,1.2392,1.2366,1.2364,1.2371,1.237,1.237,1.2325,1.2324,1.2323,1.2321,1.2301,1.2302,1.2302,1.2332,0,0,1.2303,1.2304,0,0,0,0,0,0,0,0,1.2385,1.2384,1.237,1.2368,1.2365,1.2349,1.2363,1.2358,1.2326,1.234,1.2322,1.2321,1.2318,1.2317,1.2316,1.2331,1.2331,1.2304,1.2304,1.2304,1.2304,0,0,0,0,0,0,0,1.2386,1.2385,1.2383,1.237,1.2367,1.2356,1.2353,1.2362,1.2337,1.2339,1.2335,1.2333,1.2317,1.2316,1.2316,1.233,1.2303,1.2304,1.2304,1.2304,1.2368,1.237,0,0,0,0,0,0,1.239,1.2386,1.2384,1.2383,1.2372,1.2357,1.2354,1.2356,1.2337,1.2333,1.2335,1.2331,1.2316,1.2315,1.2315,1.2349,1.2304,1.2304,1.2305,1.2367,1.2369,1.237,0,0,0,0,0,0,1.239,1.239,1.2385,1.2383,1.2382,1.2358,1.2361,1.2356,1.2355,1.2334,1.2329,1.2339,1.2315,1.2314,1.2328,1.2348,1.2305,1.2305,1.2365,1.2367,1.2369,1.2418,0,0,0,0,0,0,1.239,1.2391,1.2402,1.2384,1.2382,1.2399,1.2362,1.2357,1.2356,1.2352,1.2336,1.2333,1.2314,1.2328,1.2329,1.2347,1.2305,1.2363,1.2366,1.2369,1.2414,1.2421,1.2427,0,0,0,0,0,1.2391,1.2417,1.2403,1.2403,1.2396,1.24,1.2399,1.2377,1.2358,1.2369,1.2355,1.2333,1.2345,1.233,1.233,1.2349,1.2362,1.2365,1.2369,1.2411,1.242,1.2427,0,0,0,0,0,0,1.2438,1.2414,1.2398,1.2419,1.2412,1.2393,1.2406,1.2387,1.2385,1.2381,1.2353,1.235,1.2368,1.236,1.2343,1.2377,1.235,1.2354,1.2382,1.239,1.2396,1.2398,1.2306,0,0,0,0,0,1.2451,1.2456,1.2435,1.2455,1.2453,1.243,1.2431,1.2414,1.2406,1.2403,1.239,1.2383,1.2385,1.2387,1.2388,1.2412,1.2408,1.2426,1.2432,1.2438,1.2441,1.2453,1.2461,1.2381,1.2381,1.2381,0,0,1.2478,1.2465,1.247,1.2465,1.2457,1.2463,1.2428,1.2436,1.244,1.2404,1.2417,1.2407,1.2397,1.2417,1.2424,1.241,1.2462,1.2442,1.2446,1.2447,1.2458,1.2465,1.2472,1.2383,1.2383,1.2382,0,0,1.2529,1.252,1.2536,1.2529,1.2518,1.2503,1.2507,1.249,1.2482,1.2494,1.2467,1.2471,1.2476,1.247,1.2467,1.2516,1.2495,1.2517,1.2551,1.2563,1.2569,1.2575,1.2592,1.2599,1.252,1.252,1.252,0,1.2564,1.2572,1.2547,1.2557,1.2555,1.2522,1.2538,1.2532,1.2522,1.2522,1.2506,1.251,1.2501,1.2519,1.253,1.2529,1.2533,1.2519,1.257,1.2575,1.258,1.2597,1.2603,1.2523,1.2523,1.2522,1.2522,0,1.2616,1.2622,1.2636,1.2627,1.2626,1.2639,1.2616,1.2619,1.2602,1.2588,1.2601,1.2588,1.2586,1.2589,1.2572,1.2604,1.2595,1.2575,1.2547,1.2591,1.2606,1.2612,1.2527,1.2526,1.2525,1.2524,0,0,1.2698,1.2674,1.2679,1.2675,1.2659,1.2664,1.2675,1.2672,1.2675,1.2669,1.2677,1.2681,1.2662,1.2659,1.2642,1.2653,1.2692,1.2631,1.263,1.2643,1.2726,1.2741,1.2749,1.2678,1.2679,1.268,1.2727,0,1.2747,1.2765,1.2742,1.2764,1.277,1.2738,1.2747,1.2739,1.2726,1.2729,1.2714,1.2718,1.2692,1.269,1.27,1.2685,1.2708,1.2681,1.2686,1.2686,1.269,1.2757,1.2774,1.2819,1.2732,1.2733,1.2734,0,1.2806,1.2803,1.2826,1.2809,1.281,1.2819,1.2814,1.2817,1.2807,1.2797,1.2793,1.2772,1.2782,1.2754,1.2767,1.2749,1.2749,1.2742,1.2744,1.2744,1.2714,1.2759,1.2832,1.2839,1.2743,1.2742,1.2742,0,1.2864,1.2865,1.2879,1.2876,1.2856,1.2863,1.2855,1.2843,1.2843,1.2839,1.2838,1.2835,1.2834,1.2832,1.2811,1.2792,1.2826,1.2797,1.2818,1.2819,1.2827,1.2827,1.2902,1.2827,1.2827,1.2827,1.2826,0,1.2922,1.2937,1.2905,1.2913,1.2929,1.2903,1.292,1.2908,1.2898,1.2904,1.2876,1.2882,1.2853,1.2856,1.2839,1.2852,1.2852,1.2844,1.284,1.2847,1.2848,1.2847,1.2844,1.2828,1.2828,1.2828,1.2827,0,1.299,1.2968,1.2981,1.2961,1.2956,1.2969,1.2952,1.2959,1.2944,1.2952,1.2952,1.2929,1.2931,1.2909,1.2907,1.2895,1.2916,1.2906,1.292,1.2917,1.294,1.2938,1.3017,1.3026,1.2945,1.2946,1.2947,0,1.3028,1.3039,1.302,1.3021,1.3015,1.3018,1.3017,1.2991,1.2991,1.298,1.2989,1.2988,1.2986,1.2991,1.2974,1.2972,1.2962,1.2989,1.2961,1.2968,1.2962,1.2962,1.2963,1.2996,1.2997,1.2998,1.2998,0,1.3098,1.3087,1.3086,1.3083,1.3082,1.3078,1.3072,1.3075,1.3047,1.3049,1.305,1.3049,1.3046,1.3046,1.304,1.3032,1.3011,1.3007,1.3012,1.302,1.3028,1.3024,1.2937,1.3006,1.3005,1.3004,1.3004,1.3004,1.3152,1.316,1.3148,1.3149,1.3141,1.3136,1.3142,1.3127,1.3128,1.3124,1.3108,1.3112,1.3101,1.3091,1.3085,1.3088,1.3074,1.3081,1.3083,1.3086,1.309,1.3027,1.3087,1.3086,1.3086,1.3086,1.3086,0,1.3221,1.3211,1.3212,1.3204,1.3205,1.3184,1.3176,1.3178,1.3182,1.3173,1.3171,1.3173,1.3172,1.3155,1.3152,1.3158,1.3148,1.3158,1.3158,1.3156,1.3102,1.3098,1.3166,1.3166,1.3166,1.3166,1.3166,1.3166,1.3257,1.327,1.3257,1.3266,1.3256,1.3259,1.3257,1.3252,1.3244,1.3247,1.3247,1.3235,1.3223,1.3219,1.3217,1.3212,1.3213,1.3227,1.3218,1.3168,1.316,1.3153,1.3149,1.3227,1.3227,1.3272,1.3273,1.3273]},{"header":{"parameterUnit":"m.s-1","parameterCategory":1,"la1":30.2991,"la2":30.254,"lo1":-89.0895,"lo2":-89.0444,"dy":0.0017,"dx":0.0017,"nx":28,"ny":28,"refTime":"2025-05-17T03:00:00:Z","depth":0,"parameterNumber":3,"parameterNumberName":"V-component_of_WINDS"},"data":[0,0,0,0,0,0,0,0,0,0,0,0,0,0,0,0,0,0,0,0,0,0,0,0,0,0,0,0,0,0,0,0,0,0,0,0,0,0,0,0,0,0,0,0,0,0,0,0,0,0,0,0,0,0,0,0,0,0,5.3844,5.3844,0,5.3903,5.3904,5.3905,5.3857,5.3855,5.3853,5.3851,5.3908,5.3911,5.3915,0,0,0,0,0,0,0,0,0,0,0,0,0,5.3685,5.3688,5.3844,5.3845,5.3845,5.3903,5.3904,5.3905,5.3857,5.3855,5.3853,5.385,5.3907,5.3911,5.3915,0,0,0,0,0,0,0,0,0,0,0,0,0,5.375,5.3689,5.3844,5.3829,5.3828,5.3903,5.3904,5.3905,5.3858,5.3855,5.3852,5.3849,5.3905,5.391,5.3915,5.4007,0,0,5.3931,5.3933,0,0,0,0,0,0,0,0,5.3746,5.3756,5.383,5.383,5.3829,5.387,5.3869,5.3939,5.3859,5.3846,5.3851,5.3848,5.3897,5.3903,5.3921,5.401,5.4012,5.3931,5.3934,5.3937,5.3938,0,0,0,0,0,0,0,5.3742,5.3753,5.3867,5.3831,5.3831,5.3818,5.3824,5.3882,5.3888,5.3847,5.3844,5.3852,5.3896,5.3916,5.3921,5.4013,5.3931,5.3936,5.3939,5.3941,5.418,5.4183,0,0,0,0,0,0,5.3739,5.3749,5.3865,5.3869,5.378,5.3823,5.383,5.386,5.3887,5.3889,5.3854,5.385,5.3909,5.3916,5.3923,5.4033,5.3937,5.3941,5.3944,5.4177,5.4181,5.4184,0,0,0,0,0,0,5.3736,5.375,5.3863,5.3808,5.3822,5.3829,5.3863,5.3862,5.3882,5.3893,5.3893,5.3873,5.3906,5.3916,5.3987,5.4034,5.3944,5.3948,5.4173,5.4178,5.4182,5.4253,0,0,0,0,0,0,5.3732,5.3749,5.3785,5.381,5.3825,5.3927,5.3866,5.3866,5.3891,5.3885,5.3911,5.3912,5.3905,5.398,5.3992,5.404,5.3952,5.4169,5.4175,5.4181,5.4246,5.4259,5.4271,0,0,0,0,0,5.3726,5.3802,5.3787,5.3802,5.387,5.393,5.3938,5.393,5.3895,5.3931,5.3938,5.3911,5.4027,5.3987,5.4001,5.4051,5.4165,5.4173,5.418,5.4241,5.4257,5.427,0,0,0,0,0,0,5.3781,5.3804,5.3789,5.3875,5.3901,5.3922,5.3966,5.3947,5.3983,5.3976,5.3962,5.3969,5.4043,5.4053,5.4009,5.4141,5.409,5.4101,5.4131,5.4147,5.4159,5.4155,5.3956,0,0,0,0,0,5.3803,5.3851,5.3868,5.3942,5.3956,5.3959,5.3985,5.3976,5.4002,5.4013,5.4025,5.405,5.4092,5.412,5.4159,5.4247,5.4252,5.4288,5.43,5.431,5.432,5.4367,5.4384,5.4209,5.4209,5.4208,0,0,5.3849,5.3868,5.3899,5.3954,5.3973,5.4022,5.3969,5.4022,5.4058,5.402,5.4089,5.4098,5.4125,5.4205,5.4241,5.4216,5.4369,5.432,5.4327,5.4332,5.4377,5.4393,5.4408,5.4214,5.4213,5.4212,0,0,5.3959,5.3978,5.4042,5.4063,5.4093,5.4094,5.411,5.4134,5.4139,5.4208,5.418,5.4222,5.4294,5.4315,5.4335,5.4452,5.4429,5.4465,5.4529,5.4576,5.459,5.4602,5.4644,5.466,5.4474,5.4474,5.4474,0,5.4012,5.4086,5.4077,5.4133,5.4158,5.4127,5.4191,5.4211,5.4252,5.4269,5.4241,5.4332,5.4348,5.4432,5.4461,5.4478,5.4495,5.4462,5.4589,5.4601,5.4612,5.4652,5.4668,5.4478,5.4478,5.4477,5.4477,0,5.415,5.4202,5.4249,5.4292,5.4322,5.4382,5.438,5.4411,5.44,5.4404,5.4474,5.4492,5.4534,5.4553,5.4542,5.4637,5.4621,5.4591,5.454,5.4633,5.4671,5.4686,5.4484,5.4483,5.4482,5.448,0,0,5.4296,5.4333,5.4351,5.437,5.4401,5.444,5.4498,5.4541,5.4569,5.4597,5.4645,5.4708,5.4681,5.4703,5.4694,5.4735,5.4827,5.47,5.47,5.4724,5.4933,5.4956,5.4974,5.4811,5.4814,5.4816,5.4931,0,5.4408,5.4511,5.4504,5.4601,5.4648,5.4619,5.467,5.4694,5.4699,5.4739,5.4743,5.4788,5.4748,5.4762,5.4801,5.4808,5.4869,5.4799,5.4856,5.4858,5.4851,5.4994,5.5018,5.5126,5.4945,5.4948,5.495,0,5.4552,5.4588,5.469,5.4715,5.4734,5.478,5.4819,5.4858,5.4884,5.4884,5.491,5.4894,5.4951,5.4899,5.4977,5.493,5.4952,5.4959,5.4963,5.4969,5.491,5.5004,5.5159,5.5176,5.4973,5.4971,5.4969,0,5.465,5.4723,5.4794,5.4811,5.4841,5.4874,5.4888,5.4911,5.4938,5.4971,5.4988,5.5027,5.5048,5.5078,5.5073,5.5035,5.5153,5.51,5.5155,5.5156,5.5182,5.5181,5.5344,5.5195,5.5195,5.5194,5.5194,0,5.4776,5.4839,5.4839,5.4882,5.4952,5.4943,5.5012,5.5022,5.5043,5.5087,5.5063,5.5104,5.5094,5.5135,5.513,5.5197,5.5206,5.5208,5.5206,5.5211,5.5211,5.5226,5.5219,5.5199,5.5198,5.5197,5.5196,0,5.4897,5.4899,5.4975,5.4997,5.5005,5.5055,5.5074,5.5115,5.5118,5.5174,5.5186,5.5191,5.5238,5.5235,5.5287,5.5284,5.5366,5.5355,5.5358,5.5356,5.5412,5.5407,5.5592,5.5616,5.545,5.5451,5.5453,0,5.4978,5.5027,5.5055,5.5084,5.5101,5.5147,5.5174,5.5166,5.5195,5.5229,5.5265,5.531,5.5346,5.5422,5.5429,5.5469,5.5459,5.5521,5.5465,5.5469,5.5461,5.5459,5.5464,5.5533,5.5534,5.5536,5.5537,0,5.5122,5.5121,5.5162,5.5204,5.5238,5.527,5.5299,5.5324,5.5319,5.5352,5.5401,5.5429,5.5483,5.5528,5.5566,5.5578,5.5557,5.5555,5.557,5.5576,5.5576,5.5578,5.5389,5.5551,5.5549,5.5548,5.5548,5.5547,5.5226,5.5269,5.5296,5.5343,5.5364,5.5392,5.5432,5.544,5.5481,5.5526,5.5518,5.5573,5.5597,5.5646,5.5662,5.5704,5.5682,5.5703,5.5709,5.5715,5.5722,5.5569,5.5711,5.571,5.571,5.5709,5.5709,0,5.537,5.5386,5.5429,5.5472,5.5509,5.5487,5.5518,5.555,5.5599,5.5624,5.566,5.5715,5.5759,5.5769,5.5811,5.5842,5.5834,5.5853,5.5852,5.5855,5.5739,5.5722,5.586,5.586,5.586,5.586,5.586,5.586,5.5449,5.552,5.5522,5.5602,5.5617,5.5672,5.5692,5.5717,5.5737,5.5802,5.5838,5.5845,5.5864,5.5907,5.5946,5.5947,5.5964,5.5988,5.5987,5.5878,5.5863,5.5849,5.5833,5.5992,5.5992,5.6099,5.61,5.6101]}]]